Theta_e
292 287 288 286 289 291 289 290 289 285 286 284 283 282 283 285 285 285 286 287 287 289 288 291 290 289 291 292 294 294 290 290 291 292 293 293 293 293 293 293 294 294 295 295 295 295 295 296 298 301 303 302 303 303 303 302 302 301 300 299 298 299 300 299 299 299 299 298 297 297 297 295 294 294 295 293 294 294 294 295 296 297 297 298 298 297
289 287 287 290 290 289 289 287 285 287 286 287 283 286 285 284 286 286 290 289 287 290 286 286 286 288 289 292 293 293 289 291 291 292 293 294 294 294 294 294 294 295 293 292 293 293 293 295 297 300 303 302 301 301 302 302 301 301 300 299 299 299 300 300 300 300 299 299 300 296 294 294 293 293 293 292 292 292 293 293 294 295 296 296 296 296
288 287 290 291 287 288 286 287 287 289 287 285 288 285 286 285 285 288 287 287 288 289 288 287 288 292 292 293 294 293 293 294 294 294 296 296 295 294 294 294 294 293 293 293 294 293 294 294 297 299 303 303 302 301 301 302 301 301 300 300 299 299 300 300 299 298 296 295 294 294 293 292 290 291 291 291 291 292 291 291 292 293 294 294 293 294
287 285 291 288 288 289 286 285 286 286 286 285 284 286 286 284 287 285 286 288 290 289 287 285 288 291 292 293 294 295 295 295 295 294 295 296 296 296 296 295 294 293 293 292 293 293 293 294 296 300 302 302 301 300 301 302 302 301 300 299 299 299 299 298 297 295 293 292 292 292 292 291 291 290 290 290 291 291 290 290 291 291 291 291 291 291
287 290 290 289 290 291 287 286 287 287 287 284 287 285 285 286 286 287 286 286 286 288 285 287 289 292 293 294 294 295 292 293 295 294 293 294 294 295 296 295 295 295 294 293 292 293 293 293 296 299 302 302 301 300 300 301 302 300 300 299 299 298 297 296 294 293 292 292 291 290 290 290 290 290 290 290 289 289 289 288 289 288 289 289 289 289
289 289 288 289 287 286 286 286 286 288 285 283 284 289 288 287 288 285 285 288 287 284 285 286 284 282 281 286 290 294 289 292 292 293 295 296 297 296 294 295 295 295 295 294 293 293 293 294 296 299 301 302 301 299 300 301 301 301 300 299 298 297 295 294 293 293 293 292 291 290 291 291 289 289 290 290 289 288 288 287 287 288 288 288 288 288
289 289 289 288 288 287 287 286 285 289 286 285 286 287 290 288 287 287 286 288 282 282 287 285 285 283 285 289 290 289 287 290 292 291 294 295 296 296 296 296 294 293 292 293 294 294 293 294 295 298 301 301 301 301 299 300 301 301 301 299 297 296 294 294 293 294 294 294 294 294 296 297 294 292 289 287 287 287 287 287 286 286 286 286 287 287
288 288 286 287 286 286 285 286 287 289 287 283 285 284 287 287 287 286 287 288 285 283 285 285 283 284 286 289 293 294 293 293 294 296 297 297 296 295 295 294 293 292 293 293 293 293 294 294 295 297 301 301 302 300 299 299 299 300 299 297 296 295 294 294 294 294 294 294 294 295 293 293 293 291 287 286 286 286 286 286 285 285 285 285 286 286
289 287 287 287 286 284 287 287 286 291 287 284 286 284 285 287 286 285 287 283 283 283 283 284 286 285 284 287 286 289 289 291 293 295 297 298 298 294 293 293 293 293 293 293 293 292 293 293 295 298 300 302 302 299 298 297 298 298 297 296 295 294 293 293 293 293 293 293 293 293 291 289 287 286 286 286 286 285 285 284 284 284 284 285 284 285
287 288 290 291 289 287 286 285 287 292 289 287 284 285 284 283 282 282 282 286 282 281 281 284 286 282 285 287 287 286 289 290 293 296 297 298 295 291 291 291 291 291 292 292 293 293 293 294 296 299 301 302 301 299 298 297 297 297 296 295 293 293 292 292 292 293 292 293 292 291 290 288 286 286 285 285 285 284 285 284 284 284 284 284 284 284
288 290 290 289 289 288 286 285 285 288 288 287 286 289 286 282 281 280 281 280 280 279 283 285 286 287 282 286 287 288 290 292 295 294 295 295 291 289 289 290 290 290 290 291 291 292 293 294 296 299 300 301 300 298 297 296 296 295 295 294 293 292 292 292 292 292 291 291 292 290 289 287 286 285 285 284 283 283 284 284 283 284 283 284 283 284
289 289 290 289 288 287 289 288 286 285 286 289 287 284 288 286 279 279 274 277 276 278 280 283 285 286 282 284 286 289 288 286 291 293 294 294 290 290 290 289 289 289 289 290 290 290 291 292 294 298 299 300 299 297 296 295 295 294 294 294 293 292 292 292 291 291 290 291 291 290 289 287 286 285 285 284 283 284 284 284 283 283 283 283 283 283
286 287 286 289 289 291 287 288 287 286 289 287 287 289 283 276 272 275 272 277 275 279 281 279 282 284 284 289 285 288 292 292 290 292 294 293 292 291 289 288 288 288 289 289 290 290 290 292 293 296 298 299 298 296 296 294 294 294 294 294 293 291 291 291 290 290 289 290 290 289 288 288 287 286 286 285 284 284 284 283 282 282 283 282 283 283
284 284 286 288 289 290 293 289 285 285 288 286 288 284 280 273 274 271 270 270 271 277 279 281 282 283 286 289 293 295 297 297 294 292 292 292 294 294 291 288 287 287 288 289 290 290 290 291 293 296 298 298 297 297 296 294 293 293 293 293 294 291 291 290 289 289 288 289 289 289 288 287 286 286 286 285 285 284 284 284 283 283 283 283 283 283
278 281 284 289 288 291 294 295 293 288 287 289 287 290 286 279 274 271 271 276 278 276 275 276 277 279 278 285 287 294 292 285 286 288 290 290 291 291 287 286 286 287 287 288 289 290 290 291 292 295 297 298 297 296 295 294 293 293 292 292 293 291 290 289 289 288 288 288 288 288 287 287 286 286 285 285 285 284 283 283 283 283 283 283 283 283
284 283 282 291 287 292 293 290 289 287 287 286 286 285 281 284 281 280 274 271 271 272 273 274 281 282 286 287 289 287 287 289 289 288 287 288 289 287 287 287 287 287 288 288 289 289 290 291 292 294 296 297 297 297 295 295 294 293 292 291 292 290 289 289 288 288 288 287 287 287 286 285 285 285 285 285 284 283 284 283 283 283 283 283 282 282
281 281 285 287 288 290 290 288 290 289 286 285 287 284 286 285 283 274 274 275 273 272 279 275 281 285 286 291 292 293 292 292 291 289 287 289 289 286 287 288 287 288 288 288 289 289 290 290 291 293 295 296 297 296 295 295 294 293 292 291 291 290 289 289 288 288 288 287 286 286 285 285 284 284 284 283 283 283 283 283 283 282 282 282 282 282
283 281 286 285 288 287 286 287 286 286 287 286 282 286 286 286 285 283 279 273 270 274 278 277 281 284 281 285 284 287 288 291 292 293 293 290 287 288 289 288 288 288 288 288 289 289 290 290 290 292 294 296 296 297 296 295 294 294 293 292 291 289 288 288 288 287 286 285 285 285 284 284 284 284 283 283 282 282 282 282 282 282 281 282 282 282
289 282 283 283 284 287 287 289 290 288 288 286 284 288 289 283 281 281 276 277 271 274 277 276 278 281 284 288 289 287 287 290 292 291 289 291 291 289 290 289 287 287 287 287 288 288 289 289 290 291 293 294 296 296 296 295 294 293 293 292 292 290 289 288 287 286 286 286 285 285 284 283 283 283 283 283 282 282 282 281 281 281 282 281 281 281
288 283 281 284 285 286 287 288 284 285 288 287 288 288 286 285 276 279 283 275 278 273 269 278 275 284 288 286 287 291 291 292 292 288 290 291 291 292 291 290 288 287 288 288 288 288 289 289 290 290 291 292 294 295 295 295 293 293 293 291 291 291 289 287 286 286 284 284 285 284 283 283 283 283 282 282 282 281 282 281 281 281 281 281 281 281
286 285 278 282 283 286 284 286 286 288 286 285 285 284 286 282 284 281 280 279 280 267 268 272 280 286 289 288 289 292 291 291 291 291 292 294 293 289 289 289 289 288 288 288 288 288 288 288 289 289 290 292 292 294 295 294 293 293 292 291 291 290 288 286 285 285 284 284 284 283 283 282 282 282 282 281 282 282 281 281 282 281 282 281 281 280
285 283 283 282 282 283 284 284 287 290 292 290 290 287 289 284 281 278 281 281 273 277 279 273 281 288 288 286 291 290 291 291 291 291 293 293 290 288 288 288 288 288 288 288 288 288 288 288 288 288 289 290 290 291 293 293 293 292 292 291 291 290 288 286 285 284 284 283 284 283 283 282 282 282 281 281 281 281 281 281 281 281 281 281 280 280
291 285 284 278 283 286 285 286 282 283 285 285 286 285 289 288 287 282 279 282 276 280 275 276 273 285 289 288 289 289 288 287 287 287 290 291 289 287 287 287 287 288 288 288 287 287 287 287 287 288 288 288 289 290 291 291 292 292 291 291 290 289 288 287 286 285 284 283 283 283 283 282 281 281 281 281 281 281 280 280 280 280 280 280 279 280
294 287 284 284 281 282 284 284 283 284 287 287 285 282 287 288 289 289 286 282 283 276 279 275 274 287 288 284 283 282 280 280 282 282 286 286 287 286 285 286 286 286 286 286 286 286 287 286 286 287 287 288 288 289 290 291 291 292 291 290 289 288 288 287 286 285 284 283 283 283 282 281 281 280 280 280 280 280 280 280 280 280 280 280 279 279
289 287 287 283 281 282 283 285 285 286 285 280 281 287 290 290 288 282 282 280 281 282 285 282 279 286 288 284 283 283 282 285 286 284 284 287 288 287 286 286 285 285 285 285 285 286 285 285 285 286 287 287 288 288 288 289 290 290 290 289 288 288 288 287 286 284 284 283 283 282 281 281 280 280 280 280 280 280 280 280 280 280 280 279 279 279
291 289 287 283 280 278 278 279 280 280 284 284 281 285 287 290 289 285 284 282 283 287 285 284 284 291 286 286 288 285 283 287 287 285 284 285 288 286 286 285 285 285 285 285 285 285 285 285 285 286 286 287 287 287 287 288 288 289 289 289 288 287 286 286 285 284 283 283 282 282 281 280 280 280 280 280 280 279 279 280 279 279 279 279 279 278
287 289 291 289 286 285 286 287 285 287 283 283 285 287 287 289 290 290 288 285 283 285 284 286 289 290 291 290 287 288 283 288 289 288 288 288 286 286 285 286 285 285 285 285 285 285 285 285 285 285 286 286 286 287 287 287 287 287 288 287 286 286 285 285 285 284 284 283 283 282 281 280 280 280 280 280 279 279 279 279 279 279 279 279 279 278
286 288 290 291 290 291 291 291 287 290 286 288 287 286 288 288 288 287 287 286 290 284 283 289 290 288 290 293 288 287 287 285 285 287 288 287 286 287 286 285 286 285 285 285 285 285 285 285 285 285 285 285 286 286 286 287 287 287 287 286 285 285 284 284 284 284 284 283 282 282 281 281 281 281 281 280 279 279 279 279 279 279 279 279 278 278
288 288 291 290 290 291 291 291 288 288 290 289 288 288 287 288 287 286 287 291 291 287 286 291 291 288 291 294 294 289 289 290 291 292 291 288 286 284 284 285 285 285 285 284 285 285 285 285 285 285 285 285 285 285 286 286 286 286 286 286 285 285 284 284 284 283 283 282 282 283 282 282 281 281 281 280 279 279 279 279 279 279 278 278 278 278
291 289 291 291 289 290 291 291 290 288 289 288 288 288 289 288 287 288 289 291 291 289 291 292 291 291 293 295 294 293 290 291 290 287 286 287 287 285 285 285 285 285 285 285 285 285 286 286 286 285 285 284 284 285 285 286 286 286 286 285 285 284 284 283 284 283 282 282 282 282 282 282 282 281 281 280 279 279 279 279 278 278 278 278 278 278
291 289 294 289 287 288 290 291 289 286 287 287 286 286 288 289 289 289 290 290 291 290 292 291 290 290 295 292 291 294 294 291 290 291 292 291 289 287 286 286 286 286 286 286 286 286 286 286 286 285 285 285 284 285 285 286 286 286 285 285 284 284 284 284 284 283 283 283 282 282 282 282 281 281 280 280 280 279 279 279 278 278 278 278 278 277
290 286 287 288 286 286 289 289 289 286 285 286 287 286 286 287 286 288 287 290 289 288 289 289 288 289 293 293 293 292 293 294 294 295 295 295 294 291 289 289 288 288 287 287 287 287 286 286 286 285 285 285 285 285 285 285 286 285 285 285 284 284 284 284 284 283 283 283 282 282 281 281 281 280 280 280 279 279 279 279 278 278 278 277 277 277
288 288 288 287 285 285 289 290 288 286 284 283 285 288 289 289 289 290 291 291 291 292 288 286 288 294 295 289 291 290 292 293 294 296 297 296 296 296 294 293 292 290 289 289 288 287 287 286 286 287 286 286 286 285 286 286 285 285 286 285 285 284 283 284 284 283 283 282 282 282 282 282 281 280 280 280 280 279 278 278 278 278 277 277 277 276
288 289 287 288 284 286 288 288 286 283 278 281 293 296 295 291 290 288 288 290 292 292 291 294 295 297 291 287 290 290 291 295 297 299 300 299 297 294 292 291 291 291 291 290 289 288 288 287 287 287 287 287 287 286 286 286 286 286 286 285 284 283 283 283 283 283 283 282 282 282 282 281 281 281 281 281 280 279 278 278 278 278 278 277 276 276
288 288 287 289 285 285 287 285 282 278 280 292 293 293 297 296 295 292 292 293 293 293 293 293 294 295 295 292 293 293 293 295 296 298 297 294 295 296 294 291 290 290 291 291 289 288 288 288 288 287 286 286 286 285 285 284 285 284 284 284 283 283 283 283 283 283 283 282 282 282 282 282 281 281 281 280 279 278 278 278 278 277 277 277 277 276
288 288 288 286 287 285 283 284 278 279 287 287 290 291 288 292 292 292 290 293 294 294 293 292 294 296 296 293 291 291 292 292 290 291 292 292 291 294 293 293 293 292 291 291 291 290 289 288 288 287 287 287 285 284 284 284 284 284 284 283 283 282 283 283 283 283 283 282 282 282 282 282 281 281 280 279 278 278 278 277 277 277 277 276 277 276
292 289 288 284 288 281 284 284 284 289 287 288 287 290 288 288 288 290 287 290 295 295 294 293 294 295 295 295 293 289 288 288 288 294 290 290 290 291 294 295 295 293 293 293 293 293 291 290 289 288 287 285 285 284 284 284 284 284 283 282 283 282 282 282 282 282 283 283 282 282 282 282 281 280 279 279 278 278 278 278 277 277 277 276 276 276
295 289 288 285 284 287 284 282 283 282 280 286 293 289 289 293 293 294 291 289 295 295 296 295 294 295 293 294 294 290 290 289 290 294 293 291 292 292 291 290 290 291 292 292 288 287 287 287 287 286 286 285 284 284 284 283 283 283 282 282 282 282 282 282 282 283 283 283 283 282 282 282 281 280 279 279 278 278 279 279 278 277 276 276 275 275
292 293 291 287 285 285 283 281 282 281 284 291 288 288 288 292 293 290 289 286 294 295 293 295 294 294 293 294 294 290 290 289 290 295 290 292 293 292 291 291 291 290 289 289 289 288 286 286 286 285 285 284 283 283 283 283 283 282 282 282 281 282 281 282 282 283 283 283 283 282 282 281 281 281 280 279 279 279 278 278 277 277 275 276 276 276
287 288 288 285 284 286 284 282 281 286 285 287 285 284 284 286 292 291 281 282 293 290 293 292 293 294 295 295 294 290 290 288 291 295 289 291 292 292 292 292 289 287 286 285 285 286 285 285 284 283 283 283 283 282 282 283 283 282 282 282 282 281 282 282 283 283 283 283 282 282 281 281 281 281 280 279 279 278 278 278 276 275 275 275 275 275
284 285 286 282 284 285 285 283 285 285 288 286 286 284 285 291 292 284 281 289 290 291 291 294 293 295 295 294 292 290 293 296 295 289 285 286 290 289 286 286 286 286 285 284 284 284 284 284 285 284 284 283 282 282 282 283 283 282 282 281 281 281 283 283 283 283 283 283 282 281 281 281 281 280 280 280 279 278 277 277 276 275 274 274 273 273
284 285 285 285 283 283 284 282 283 286 287 285 283 287 291 291 284 283 290 284 288 287 287 289 292 294 293 291 291 294 296 296 292 283 286 286 288 285 284 282 282 281 281 282 283 284 284 284 283 282 282 281 281 282 282 283 282 282 281 281 282 283 283 283 283 283 282 282 282 281 280 280 280 280 280 279 278 277 276 275 276 275 274 273 272 271
284 283 280 282 284 284 283 281 281 277 287 287 289 287 289 288 289 289 286 283 283 283 285 287 289 290 291 291 292 293 294 291 289 288 287 285 284 284 283 282 283 283 282 282 282 282 284 283 282 282 281 280 281 282 283 283 282 281 281 281 282 283 282 282 282 282 282 282 281 280 279 279 279 279 279 277 277 276 275 274 273 272 272 271 271 271
287 282 282 284 287 280 281 279 280 287 286 289 292 288 289 293 288 286 288 291 284 283 285 287 287 287 288 292 291 292 292 290 285 282 283 283 282 282 281 281 281 281 281 281 283 283 283 283 282 281 280 280 281 282 283 283 282 281 281 282 282 281 281 282 282 282 281 280 280 279 279 279 278 278 277 277 276 276 275 273 273 272 272 271 271 271
289 286 287 284 287 285 284 286 288 286 286 289 291 289 291 291 285 286 287 288 288 287 286 287 288 288 288 290 289 290 288 287 289 285 285 285 284 283 283 282 282 282 282 282 282 282 283 283 281 279 278 279 280 281 283 284 283 281 282 282 280 281 281 281 281 281 280 280 279 279 278 278 277 277 276 276 276 275 274 272 272 272 271 271 271 271
285 284 284 286 285 287 288 287 285 283 283 286 289 285 284 285 285 285 287 288 286 287 287 289 288 288 287 287 289 285 288 288 286 284 284 284 284 284 283 283 282 282 282 282 281 282 282 280 279 279 278 278 279 281 282 282 283 282 282 280 280 281 281 280 280 280 280 279 278 278 277 276 276 276 275 275 276 276 275 273 272 273 271 271 271 271
285 284 286 285 285 287 283 289 286 286 284 284 286 288 285 284 285 285 284 285 286 285 285 286 285 286 286 286 288 289 288 286 285 285 284 283 284 283 283 284 283 283 282 282 282 281 281 280 280 279 279 278 278 280 281 281 281 281 280 279 279 280 279 279 280 279 278 278 277 277 276 276 275 275 274 274 274 274 274 273 273 273 271 271 271 271
285 286 284 285 285 285 285 284 284 283 283 284 284 285 288 288 284 284 285 284 284 283 283 284 285 284 284 286 287 288 286 283 284 284 283 283 283 283 283 283 282 282 281 282 281 281 282 283 282 280 280 280 278 279 279 279 279 278 278 278 278 278 279 279 279 278 278 277 277 276 276 276 271 273 273 273 273 273 272 272 272 272 272 271 271 271
286 287 282 285 283 286 287 288 287 285 287 287 284 284 285 286 285 284 283 281 281 282 282 281 282 283 283 285 284 284 283 282 284 283 283 283 282 282 282 282 282 283 281 280 280 282 284 284 283 282 282 281 278 278 278 278 277 276 277 277 277 278 278 278 277 277 276 275 275 274 274 275 273 274 274 273 272 273 273 273 272 273 272 272 273 273
284 283 285 285 282 283 283 285 286 284 286 287 285 286 286 286 285 285 283 282 282 282 282 282 282 281 280 282 281 282 283 282 281 282 283 283 283 283 281 280 280 280 279 278 279 280 281 283 283 282 282 280 278 278 278 277 275 275 276 276 276 277 277 276 275 274 273 273 274 273 273 273 273 272 272 272 271 271 268 271 275 274 274 272 274 276
284 285 285 283 283 282 286 286 286 287 286 288 290 289 287 286 285 285 284 284 283 284 284 283 283 284 284 283 282 282 282 282 281 282 283 283 283 283 282 281 280 279 278 278 279 279 281 282 281 282 281 279 277 277 276 276 274 272 272 274 275 276 275 274 274 273 272 272 272 272 273 272 271 270 270 270 270 270 271 269 270 277 278 276 275 277
Wind_Speed
1 4 5 5 9 10 6 9 4 4 6 6 5 4 3 4 5 5 5 6 0 1 9 12 12 10 12 13 13 6 4 6 9 11 12 11 10 11 11 12 14 14 16 5 9 10 10 10 9 8 6 6 6 7 7 7 7 7 7 7 6 6 6 6 6 5 6 6 6 4 4 6 3 4 4 4 3 4 3 4 3 3 4 6 6 6
4 2 6 12 6 3 6 5 8 6 4 2 4 2 4 3 8 5 1 2 2 3 4 2 4 11 14 13 14 8 3 11 12 13 14 15 14 12 13 15 16 14 1 6 8 9 9 8 9 7 8 8 11 9 8 9 8 8 8 7 7 6 6 5 5 5 3 2 3 5 5 4 4 4 4 4 3 2 2 5 4 2 5 6 5 5
2 7 11 7 6 6 5 5 3 4 3 3 2 2 1 7 5 10 4 2 2 1 10 5 11 14 11 11 13 11 13 11 11 13 16 15 14 12 13 16 13 6 10 8 10 9 10 10 8 8 10 10 10 9 8 9 9 9 7 7 8 7 7 6 4 4 4 3 4 4 6 4 5 4 4 4 3 3 5 5 3 4 5 5 5 5
1 6 14 4 5 6 5 3 5 4 2 3 2 1 8 3 2 6 1 3 0 3 3 3 11 14 11 12 16 16 15 12 9 13 16 14 15 15 17 14 11 13 12 14 14 14 11 10 9 12 11 12 9 7 8 10 11 8 7 7 7 7 5 6 6 6 6 6 7 7 6 6 4 5 4 5 4 5 7 5 3 5 5 5 5 5
8 1 1 5 6 6 4 3 5 4 4 3 5 5 2 2 5 7 5 3 1 1 2 6 10 12 10 13 9 9 5 7 14 11 12 14 14 16 8 6 12 16 15 13 11 10 11 12 15 15 13 11 11 8 10 10 11 6 10 9 8 6 6 5 7 8 8 8 8 7 8 7 8 6 4 4 4 4 4 3 4 4 4 4 4 4
8 3 4 5 3 4 7 3 5 7 4 3 5 10 8 5 6 4 3 4 7 5 4 3 7 5 5 5 11 9 4 5 6 7 15 18 17 13 13 18 11 8 9 14 15 15 15 12 9 12 13 14 13 10 9 9 9 11 9 8 7 5 5 6 7 8 8 7 11 9 8 6 4 5 4 4 5 5 3 3 3 4 4 4 5 4
4 1 2 5 5 4 4 4 4 6 6 1 5 7 10 6 2 2 1 2 4 4 2 2 2 12 3 5 7 6 3 11 8 6 13 13 14 11 13 12 8 10 8 7 9 12 13 13 11 13 15 15 15 12 7 7 10 11 11 9 8 7 6 6 8 8 6 6 4 6 8 9 12 9 2 1 2 3 3 3 4 4 4 4 5 5
2 0 4 5 5 4 4 2 5 11 6 3 2 2 3 4 5 4 3 5 5 1 4 1 2 6 19 7 11 11 10 9 10 14 14 14 14 11 9 7 6 8 11 12 14 14 13 14 15 17 16 13 14 11 8 8 9 12 11 9 8 6 7 7 7 6 6 7 7 7 6 5 6 7 7 5 4 3 3 5 4 4 4 4 4 4
5 3 4 4 2 3 7 5 4 9 7 3 1 3 4 5 4 3 3 3 0 3 8 2 0 2 10 2 4 3 5 8 13 17 17 16 13 5 6 8 11 12 13 13 13 14 16 15 15 13 14 12 12 10 10 9 8 9 9 8 8 8 7 8 9 8 6 5 6 6 7 8 4 5 5 5 4 4 3 6 4 4 4 4 5 4
1 4 8 7 7 7 3 1 4 11 4 1 5 7 7 7 7 4 4 3 2 3 8 6 5 4 20 5 4 3 3 8 12 16 16 15 6 4 7 9 8 6 6 7 9 11 12 13 12 11 10 12 12 9 8 9 8 8 8 9 10 8 7 8 10 8 7 7 6 7 6 9 8 6 5 4 6 4 4 5 5 4 4 4 4 4
0 3 4 4 6 4 6 3 1 0 2 8 4 8 6 7 4 3 6 3 3 5 8 11 11 6 12 2 9 9 9 12 13 8 9 9 4 7 9 7 6 6 6 6 7 7 8 7 9 10 13 12 11 8 8 9 8 9 9 8 10 9 7 9 9 8 8 7 6 7 8 10 12 9 8 8 5 5 4 6 5 4 4 3 4 4
1 1 1 1 4 3 4 5 3 2 4 5 2 3 4 2 6 3 4 4 1 9 2 3 7 6 12 3 4 6 4 5 7 9 11 9 7 7 5 6 6 6 6 6 7 7 9 9 9 10 12 13 14 12 10 8 8 9 8 9 10 8 8 8 8 7 7 7 6 6 7 9 10 12 9 9 10 8 8 7 7 4 4 4 3 3
4 6 2 1 4 9 3 8 3 4 1 2 5 7 6 4 6 3 3 2 5 8 0 3 1 5 19 16 2 7 11 7 10 10 11 9 10 9 6 6 6 5 7 8 8 8 9 11 12 13 13 13 15 13 14 9 9 9 9 11 11 9 9 8 8 8 8 8 7 7 8 7 7 9 10 10 8 8 8 7 7 7 6 4 5 4
7 1 1 4 2 5 9 9 4 1 5 5 8 7 6 0 1 4 4 2 7 7 3 1 1 10 5 8 12 20 20 14 7 11 11 10 13 10 5 4 5 6 7 8 9 9 11 11 11 12 12 13 12 14 14 12 10 9 9 10 13 9 10 10 9 8 9 8 8 7 7 8 8 8 8 8 9 8 7 7 9 8 7 7 6 6
5 5 7 9 6 6 11 13 14 7 11 11 2 10 10 8 7 4 6 6 8 4 2 6 1 8 3 5 2 12 5 5 6 8 9 10 11 8 3 3 4 6 7 7 9 10 11 11 12 12 12 12 12 14 13 12 10 10 10 11 13 12 11 10 9 9 9 8 8 7 7 7 6 7 8 8 7 8 9 7 8 8 7 7 6 6
11 7 5 4 3 9 13 1 6 7 3 3 2 5 3 7 6 6 3 3 2 3 4 2 7 3 6 2 6 5 7 9 8 9 7 12 12 8 8 7 7 7 8 8 10 10 10 11 11 11 11 11 12 14 12 15 10 11 11 12 12 11 11 10 11 10 9 9 7 9 10 8 7 5 6 6 5 5 6 9 9 9 8 6 6 5
3 5 2 4 5 4 3 1 1 4 8 5 6 6 6 2 6 4 2 2 1 2 12 4 10 8 9 13 12 16 13 12 9 7 6 15 8 2 8 6 7 7 8 9 9 10 11 10 11 12 12 11 12 12 13 15 13 12 12 12 11 10 10 11 12 10 9 9 9 9 8 8 8 8 10 9 10 9 8 7 7 8 8 7 6 6
8 5 1 2 5 1 1 0 3 5 4 9 4 8 2 2 3 4 5 2 4 4 8 4 10 12 3 17 3 2 5 10 12 17 16 5 2 6 10 8 9 10 10 9 9 8 10 11 13 12 11 12 14 14 13 13 11 11 11 13 12 10 11 10 11 10 10 11 11 9 9 9 9 10 9 9 11 9 9 7 6 6 7 8 7 6
2 5 1 1 0 3 1 1 2 2 2 5 4 5 8 4 2 2 3 4 1 5 7 5 4 11 9 15 2 3 3 7 14 8 3 9 9 11 11 10 8 7 7 9 11 10 10 12 13 14 14 12 12 12 12 11 11 10 10 11 12 12 11 11 10 9 8 9 8 9 10 10 10 8 8 8 9 9 10 10 8 9 8 8 7 8
1 5 3 1 2 1 0 4 9 4 1 2 2 3 1 3 1 6 7 3 5 6 2 9 2 16 7 9 5 9 12 13 9 5 5 8 11 10 9 7 9 9 10 10 10 11 11 12 12 14 15 14 14 14 13 12 11 12 11 11 11 10 10 11 11 11 11 10 8 7 7 7 8 9 11 10 10 9 10 11 10 10 9 9 8 8
3 2 7 1 3 2 4 6 10 14 11 1 2 4 1 0 2 4 1 4 4 5 3 3 14 17 10 9 10 11 10 11 8 11 4 9 8 5 6 8 8 9 10 10 9 10 10 11 11 10 10 9 8 10 11 12 13 12 10 12 11 12 10 10 12 11 10 9 9 10 11 11 10 10 8 10 10 11 9 8 8 8 8 8 8 8
2 4 9 3 1 7 7 3 5 9 14 15 17 15 17 12 5 3 8 2 3 4 7 5 17 19 6 4 9 8 9 7 6 9 4 8 6 6 5 7 8 7 8 8 8 8 9 9 10 8 8 8 9 11 12 11 11 12 13 11 11 10 11 11 9 10 10 9 9 11 11 10 7 8 8 10 9 11 9 9 8 9 8 8 8 8
7 3 3 4 9 9 3 1 2 1 1 1 1 2 5 4 4 4 6 8 0 3 3 3 4 25 4 10 8 6 8 4 5 3 5 7 6 5 5 6 6 7 7 8 8 8 8 8 9 11 12 13 13 12 11 11 13 13 12 11 11 11 11 11 10 10 9 9 10 11 9 9 9 9 10 10 9 10 9 8 8 8 9 8 8 7
4 3 3 5 1 2 2 1 1 0 2 1 1 0 7 10 15 13 6 3 7 1 3 2 1 22 1 1 3 2 3 2 3 5 8 7 6 5 6 7 6 5 5 5 6 6 7 8 8 9 12 13 12 13 14 13 11 11 11 11 10 12 12 11 10 10 9 9 9 9 9 8 7 9 8 10 7 10 9 8 7 7 7 8 8 8
5 4 6 2 2 2 1 1 1 2 1 2 4 9 11 7 4 2 5 0 3 11 16 10 15 23 1 1 1 0 3 4 7 5 6 9 7 4 6 7 4 4 5 6 7 8 8 9 11 13 12 12 12 11 10 11 11 11 12 10 11 10 10 10 9 10 8 9 11 9 9 8 7 7 8 7 6 8 8 8 8 7 9 8 8 8
6 8 10 8 12 12 11 12 11 6 10 4 2 5 5 11 15 5 5 6 10 15 12 8 13 23 2 1 4 2 2 5 5 5 5 8 7 3 5 6 6 6 7 8 8 8 11 11 9 9 11 11 11 11 11 10 10 11 11 12 10 10 9 10 8 10 10 8 9 9 10 9 8 8 8 7 6 7 7 6 7 7 6 7 9 8
2 3 12 12 14 16 16 8 2 10 5 8 12 14 14 13 12 12 7 8 17 11 8 17 25 25 15 7 4 5 3 6 5 3 6 6 5 6 7 6 6 7 8 10 10 9 8 10 14 12 11 10 9 10 9 11 11 11 11 11 11 9 9 9 9 9 10 10 10 8 9 10 10 9 9 8 8 6 6 6 5 5 6 6 7 8
2 4 11 16 19 19 17 17 7 14 12 16 15 14 18 17 17 16 16 21 15 4 16 20 20 16 26 22 7 6 7 4 7 6 9 6 7 7 7 5 4 5 6 6 7 10 13 11 9 11 12 10 10 9 10 10 12 13 13 13 10 9 9 8 9 8 9 10 9 8 8 8 8 9 9 8 8 8 7 7 7 7 6 7 8 8
7 9 9 11 17 19 20 18 11 12 14 14 17 17 19 19 15 20 25 29 18 15 23 25 14 16 25 26 16 9 8 7 9 11 7 4 2 2 3 5 7 9 8 9 10 10 11 13 14 13 11 11 9 12 12 11 11 11 10 10 11 11 11 10 10 10 10 10 10 9 8 8 7 7 9 9 9 9 9 9 8 7 7 7 6 6
4 9 11 15 18 16 17 19 12 15 12 8 11 15 16 20 25 28 30 28 23 17 20 24 20 21 24 24 10 10 10 10 7 2 1 3 5 6 6 8 9 9 11 12 12 13 14 14 12 11 12 12 14 13 13 13 13 13 13 11 10 11 9 11 11 11 11 11 11 9 10 8 8 9 9 9 10 10 9 9 9 9 8 7 5 6
4 9 13 6 6 13 19 17 8 9 10 11 6 8 15 22 27 30 27 21 17 21 25 27 23 23 22 3 5 7 11 6 3 5 10 10 7 8 10 10 11 10 10 10 11 13 13 11 9 10 12 15 16 17 16 15 13 10 10 11 12 12 12 12 12 11 12 12 10 10 10 9 9 10 11 9 9 9 9 8 7 8 7 7 7 7
5 4 2 2 9 11 15 17 16 6 4 7 10 11 18 23 22 17 16 18 18 24 26 18 16 23 14 11 6 9 8 11 13 15 14 12 12 10 10 11 10 9 9 11 12 11 10 11 12 14 16 17 17 18 16 15 14 13 14 12 12 11 10 11 11 12 11 10 10 10 11 10 11 11 11 10 11 10 9 9 9 9 8 8 8 7
4 4 7 6 11 13 18 16 13 5 1 7 16 26 29 22 16 12 17 21 22 21 16 16 24 25 19 5 8 9 12 13 14 15 17 16 15 15 15 14 11 9 10 12 12 13 13 14 16 18 17 14 14 15 17 16 14 15 14 13 12 10 11 12 12 11 10 10 11 11 10 11 12 11 11 10 9 9 9 9 9 9 9 10 8 8
6 9 9 6 9 9 17 12 3 6 14 16 22 28 26 24 22 20 21 24 24 16 18 22 23 22 6 5 10 11 13 17 18 19 19 17 15 15 13 10 10 11 12 11 10 11 13 12 11 13 16 16 16 15 10 10 14 12 11 11 10 13 12 13 11 11 11 11 11 11 11 11 11 10 10 9 9 9 9 10 10 9 8 7 7 9
13 12 12 6 5 8 8 3 5 17 17 15 3 3 12 21 22 24 27 22 19 17 19 20 22 23 17 10 13 13 14 13 12 15 15 13 13 11 13 13 13 14 14 12 10 10 12 15 15 13 11 12 13 12 12 12 11 10 11 12 13 12 12 12 11 11 11 11 11 10 11 11 11 11 9 9 9 9 9 10 8 9 8 9 10 11
9 12 7 6 6 1 3 8 12 12 4 4 8 9 2 1 6 7 14 21 23 21 22 26 31 30 21 14 8 5 7 8 7 11 13 9 7 10 10 13 14 13 13 12 12 13 13 13 16 17 17 10 9 10 11 12 10 12 12 12 13 12 11 12 12 11 10 11 11 12 12 11 10 9 9 9 9 10 10 10 11 11 9 9 8 6
11 5 6 7 7 10 7 12 16 5 12 7 7 9 7 8 10 15 16 21 23 21 21 23 28 27 18 13 11 5 3 3 7 17 6 7 11 11 13 14 10 10 11 11 12 13 12 11 11 11 8 10 12 12 13 11 12 11 11 12 11 12 11 11 12 12 12 12 12 12 11 11 11 10 10 11 11 12 11 11 10 8 7 8 8 8
15 15 7 11 7 11 11 11 6 7 14 16 21 1 3 7 8 10 10 15 14 15 20 21 25 22 11 13 13 7 2 4 15 23 9 11 11 13 8 7 6 8 10 9 5 4 5 7 6 8 12 12 13 13 11 12 13 12 12 12 11 12 12 12 13 12 12 12 12 12 12 12 12 12 12 11 12 12 10 9 6 8 8 10 9 9
13 16 14 15 8 8 12 12 11 11 12 9 6 3 3 7 11 6 5 15 17 14 11 20 18 13 14 17 18 8 8 13 20 21 4 13 12 7 9 12 12 11 8 8 9 9 7 7 9 9 9 11 13 12 13 14 14 13 13 12 12 12 13 14 13 13 14 13 11 11 11 10 11 11 11 12 11 10 10 10 10 8 7 7 7 8
12 10 9 12 11 11 10 12 12 6 10 4 1 2 1 2 10 9 6 12 11 8 11 9 12 20 23 21 16 12 14 16 20 18 7 11 9 9 12 13 10 9 8 4 4 5 6 7 9 9 12 14 13 12 14 14 14 13 13 12 12 13 14 15 14 12 9 9 10 10 10 9 11 10 11 11 9 8 9 7 6 7 8 7 7 6
6 6 8 17 14 15 16 10 5 6 4 4 3 2 2 7 9 8 17 9 4 6 6 14 18 21 20 16 10 12 17 20 14 1 2 1 0 1 2 1 3 5 7 6 5 6 8 8 10 12 12 9 11 12 13 13 12 12 11 12 12 15 14 10 9 10 10 10 10 10 11 10 11 11 10 9 10 9 7 7 8 7 8 8 6 6
4 3 2 6 11 12 11 13 11 6 5 5 2 8 7 7 7 15 5 1 4 4 5 5 11 14 8 5 11 14 15 13 2 1 0 2 2 2 1 1 3 3 2 2 6 7 7 6 6 6 7 9 12 12 12 12 13 11 12 11 15 13 8 10 10 10 10 11 11 10 10 9 8 9 9 8 8 8 7 6 7 8 8 6 7 8
8 6 6 8 4 4 2 8 4 9 2 6 9 2 3 7 4 2 1 0 1 2 2 4 7 5 4 7 9 12 12 5 5 5 5 4 4 5 5 5 7 7 7 7 6 5 9 8 9 9 9 9 10 11 11 13 13 12 11 14 12 9 10 10 10 11 10 10 10 10 10 9 10 9 7 8 8 10 9 7 7 6 7 7 7 7
5 5 3 6 7 6 9 9 8 5 3 11 12 9 8 12 2 3 0 0 2 2 1 3 4 4 5 6 10 9 9 6 3 3 2 3 4 4 2 3 3 4 4 4 5 8 8 8 8 9 7 8 9 10 11 14 14 12 13 11 7 8 8 9 10 10 10 9 9 9 8 8 8 8 7 9 8 8 8 8 7 7 7 7 7 6
8 11 3 7 5 9 6 7 2 2 3 8 6 2 3 1 4 2 2 0 1 2 3 1 6 5 7 6 4 5 4 7 8 6 8 9 8 8 8 7 7 7 7 8 9 7 7 12 13 10 9 7 8 8 9 9 13 14 12 8 9 10 11 9 9 9 8 8 8 8 7 7 7 8 7 8 9 9 8 8 8 7 5 6 6 6
4 0 2 1 4 3 4 2 0 2 3 7 6 1 3 4 3 1 0 2 3 4 5 6 3 2 3 3 5 3 7 7 8 7 8 5 7 5 4 4 4 4 4 5 6 7 7 7 8 11 12 7 6 8 7 6 8 14 10 9 9 9 10 11 11 10 10 8 8 8 9 9 7 7 7 8 7 8 8 9 9 8 7 6 6 6
1 1 1 3 2 3 6 1 2 4 2 4 6 5 3 2 2 0 2 4 4 3 4 5 4 3 3 3 6 8 9 7 8 8 6 6 7 8 8 9 8 9 11 11 10 10 10 11 12 12 12 12 8 7 6 6 4 5 9 9 8 9 10 10 10 9 9 9 8 8 9 10 8 7 6 7 6 6 6 6 7 7 7 7 7 7
3 1 2 2 3 4 4 4 5 3 4 6 6 6 8 5 1 2 4 4 5 3 3 5 2 4 2 6 9 7 5 4 7 7 6 6 6 7 8 8 9 7 5 5 8 9 10 12 13 13 13 12 10 8 7 6 6 6 8 8 9 9 10 10 10 10 10 10 9 8 8 8 10 10 7 7 8 8 7 6 7 8 9 10 9 9
2 2 3 1 0 4 6 8 7 4 6 7 5 6 7 5 5 3 2 2 2 3 2 0 1 3 4 6 2 4 5 7 6 6 9 8 6 6 7 7 7 8 9 11 8 9 12 11 11 11 11 10 8 7 7 6 5 7 8 9 9 10 11 10 9 8 8 8 8 8 7 7 8 8 8 8 7 6 7 9 9 9 6 5 7 9
2 6 3 1 3 8 6 6 2 6 8 5 4 7 8 8 6 5 1 2 3 4 3 2 0 0 1 1 3 3 5 6 5 5 7 7 9 8 6 6 5 6 5 3 4 4 5 6 10 10 8 8 8 8 7 7 6 6 6 8 9 10 11 11 9 9 8 8 7 7 7 7 7 7 7 7 7 7 3 3 6 7 7 7 8 12
8 6 5 6 6 8 4 3 3 3 2 6 7 7 5 3 3 5 7 6 5 5 4 4 3 1 1 0 1 5 4 3 5 4 4 4 5 5 6 9 10 8 6 6 6 4 6 6 6 8 8 8 8 8 7 7 7 7 6 8 8 9 10 11 10 8 7 8 7 9 9 7 7 6 6 6 7 6 6 4 3 9 12 8 8 11
Wind_Direction
32 106 164 192 221 210 195 189 167 154 129 104 92 109 192 205 281 281 272 260 246 302 233 234 245 250 264 265 265 266 143 234 257 260 253 245 236 232 232 229 228 226 231 168 187 185 188 189 188 184 168 172 171 170 163 157 159 158 152 149 150 153 149 144 143 141 137 130 112 65 67 101 92 85 70 60 53 49 47 54 53 78 91 92 100 103
61 103 239 223 222 168 189 132 108 84 58 133 115 161 266 166 248 233 208 33 295 173 295 291 273 261 256 265 266 263 172 243 230 241 249 251 235 232 228 232 228 228 102 155 187 197 193 190 189 181 176 177 181 182 168 174 168 161 158 156 153 155 161 152 148 136 125 120 139 137 133 123 110 111 102 98 75 66 43 51 35 52 78 79 82 93
94 190 236 215 117 90 77 122 119 147 124 64 184 189 309 265 249 275 278 323 275 97 266 311 282 270 266 258 263 256 243 240 225 223 238 239 244 232 230 233 233 200 212 181 205 191 195 189 185 184 188 192 188 175 171 175 167 167 165 159 156 161 159 149 134 122 121 105 86 109 126 126 102 51 70 84 89 79 64 52 37 47 63 72 71 68
307 278 250 154 140 100 46 77 96 77 73 138 110 117 231 234 14 303 300 11 35 177 284 317 300 281 265 249 249 247 236 242 236 236 241 240 245 241 231 224 219 217 208 201 191 195 186 182 187 189 192 193 185 175 176 179 178 169 171 161 157 157 148 139 130 116 89 88 89 81 90 85 78 119 94 89 79 73 72 59 37 49 53 56 70 67
191 217 322 153 151 145 128 98 113 136 229 272 191 199 218 191 232 191 255 301 254 21 52 313 276 275 244 254 258 257 263 264 260 249 255 255 243 248 263 247 214 216 204 202 189 190 182 186 196 193 188 185 189 183 184 178 180 168 175 163 158 149 149 134 131 128 128 117 96 99 93 94 97 81 87 86 72 58 82 90 45 50 53 70 76 74
276 259 109 88 104 92 109 148 193 147 231 292 232 199 213 205 228 272 343 8 360 334 356 43 319 281 296 255 252 271 334 285 261 237 249 250 247 240 240 240 229 227 201 197 193 191 190 188 179 189 185 191 192 188 184 176 175 174 171 158 148 136 138 141 137 139 145 150 139 142 131 128 106 129 153 163 149 147 129 117 119 73 56 69 79 76
199 16 135 152 136 138 137 167 229 159 194 67 271 201 214 208 193 212 266 60 294 241 320 35 57 291 193 235 232 254 249 258 277 245 253 256 253 240 236 243 225 212 201 203 197 190 183 189 184 190 190 192 191 190 159 167 175 174 168 160 150 147 140 142 143 146 140 134 145 150 157 161 157 154 116 77 73 115 119 119 89 79 63 54 78 79
104 52 76 78 97 126 130 195 239 169 126 239 257 142 146 152 188 215 166 188 237 258 302 37 131 273 294 226 221 213 226 254 282 274 264 253 249 239 240 240 222 205 201 195 197 192 192 185 187 190 188 186 191 170 160 167 171 174 167 154 153 146 151 155 154 160 164 154 163 151 127 130 134 147 148 144 121 115 125 106 87 83 73 65 62 83
151 169 154 147 131 122 193 209 182 158 145 219 260 133 141 161 176 122 132 168 2 15 289 321 7 297 257 297 354 151 225 264 257 256 258 259 259 252 235 228 222 213 205 194 190 191 188 189 193 188 183 182 175 166 171 171 168 161 159 156 149 152 151 157 164 165 170 167 150 140 133 120 85 107 126 121 120 124 124 104 97 88 85 78 67 64
311 167 207 160 146 205 211 306 181 161 170 228 121 87 81 76 66 101 98 103 317 52 263 198 175 225 280 229 139 356 183 229 237 244 250 256 284 264 244 241 235 233 215 206 204 191 191 189 186 183 168 172 180 169 160 159 157 158 157 157 154 154 157 161 166 169 165 156 146 143 151 131 131 131 123 125 129 133 137 111 109 106 100 97 91 77
199 294 190 128 191 185 125 50 104 253 100 130 105 77 37 41 36 34 62 84 45 258 249 189 198 167 276 323 171 145 198 202 220 260 274 272 304 267 244 242 239 220 200 193 185 180 180 173 173 170 174 172 167 163 160 158 162 164 163 154 162 158 154 164 166 167 166 161 162 154 155 148 141 148 139 134 130 134 131 131 125 120 112 104 101 104
14 23 161 250 92 111 98 77 23 95 131 121 110 127 83 350 10 34 342 34 110 266 259 312 203 191 223 287 267 238 281 266 213 227 247 267 271 268 256 244 229 207 190 174 170 168 159 156 176 178 175 174 174 172 168 162 162 166 166 161 159 154 159 163 165 167 166 160 164 152 155 155 154 151 156 153 155 165 150 147 135 129 119 112 108 108
264 213 231 96 216 134 118 87 21 36 329 85 95 93 125 243 31 288 24 260 195 238 214 310 126 326 238 245 251 267 263 262 218 225 238 253 268 261 260 247 224 191 179 177 176 169 173 175 178 184 177 172 178 180 176 165 166 168 168 170 161 164 165 168 171 173 168 162 168 163 162 158 160 161 157 154 157 159 155 151 141 150 141 139 133 139
269 324 181 187 87 236 152 149 155 82 212 142 158 148 107 149 222 268 276 282 308 291 266 291 67 250 299 297 219 248 246 239 230 233 239 237 248 252 246 223 200 197 191 190 179 181 183 179 182 184 178 178 177 179 180 172 170 172 174 173 176 165 170 170 176 171 167 177 171 165 163 162 165 164 159 159 159 164 156 157 153 157 154 154 153 147
242 296 239 142 240 175 190 200 180 159 160 201 103 162 182 148 154 213 196 211 231 229 288 280 76 237 102 245 246 235 287 323 258 256 242 245 250 259 271 211 193 199 206 190 189 188 187 186 179 181 183 180 179 177 176 177 172 172 177 178 179 170 174 171 175 172 176 173 166 160 157 158 171 164 162 162 162 155 153 158 153 148 153 152 153 151
220 235 273 195 342 162 186 216 106 94 91 207 158 77 87 221 138 231 202 182 286 340 331 202 215 200 209 250 294 254 278 282 253 255 270 269 254 242 261 236 207 213 204 198 197 191 190 185 179 178 184 184 181 181 179 182 174 177 180 179 179 170 169 175 176 182 178 173 163 160 160 166 165 154 131 127 131 135 147 152 157 151 150 146 141 134
47 271 313 325 36 163 173 99 136 148 197 202 111 205 207 152 109 85 41 69 81 46 258 132 278 265 299 274 241 247 244 255 271 270 258 249 262 6 265 258 229 219 209 205 206 197 184 179 187 186 183 183 183 184 185 186 181 178 174 177 175 174 173 176 183 180 179 163 160 168 167 160 160 162 162 157 151 147 140 148 149 148 143 136 142 136
150 238 326 85 216 301 290 243 108 25 140 97 185 228 151 132 112 142 223 359 70 206 274 122 252 290 56 285 18 63 197 245 252 246 246 292 330 247 248 235 224 219 213 206 205 204 194 187 185 186 188 186 186 186 184 184 179 179 178 179 174 171 174 183 182 179 173 161 163 162 170 169 171 164 159 153 150 150 146 149 145 140 144 155 147 142
137 282 300 332 222 298 346 103 51 358 29 145 196 195 127 222 231 286 88 260 215 251 280 290 261 261 189 255 223 275 214 256 245 251 301 264 244 240 243 233 224 219 209 203 204 197 190 190 188 187 189 186 186 185 186 180 175 178 179 182 181 177 180 177 179 175 169 168 174 175 172 170 164 164 156 150 149 152 158 159 160 161 150 138 148 145
86 182 282 329 135 288 17 130 199 190 359 35 64 133 55 99 154 133 197 182 119 267 37 287 73 276 192 219 172 227 216 232 257 280 262 262 248 237 239 233 219 215 213 207 202 200 195 193 191 187 185 184 183 181 182 180 178 182 180 177 183 180 173 169 172 169 174 177 167 162 150 166 172 164 161 159 157 165 171 165 160 156 155 158 150 152
203 147 255 319 318 98 190 197 205 166 168 104 127 204 143 16 247 110 19 143 171 183 190 277 299 268 250 186 182 208 214 208 212 234 222 263 267 254 238 229 225 219 215 211 202 197 193 189 186 188 189 189 186 185 181 181 182 180 176 184 182 176 173 176 182 179 181 166 170 159 170 171 168 169 165 159 167 166 168 162 162 164 154 142 159 152
144 151 214 144 297 224 246 256 218 197 189 180 182 191 184 148 150 140 249 56 121 150 234 166 253 277 264 213 172 198 218 193 202 232 199 242 250 229 231 231 222 222 219 205 198 191 191 183 179 178 179 185 187 188 185 183 177 180 187 185 178 179 181 178 181 184 177 177 170 170 173 177 170 163 162 165 171 172 165 164 167 158 150 161 151 159
169 146 99 184 211 206 216 263 229 192 74 128 147 253 149 186 143 135 213 223 102 256 72 176 79 271 233 175 190 189 207 202 209 177 239 256 254 259 250 247 240 221 209 198 188 189 186 181 180 180 182 188 193 190 185 183 186 188 184 178 183 182 186 184 180 180 175 173 171 176 176 164 164 164 168 170 175 174 166 165 163 160 159 157 153 155
114 125 178 264 333 315 319 316 52 80 98 2 341 256 144 185 198 197 202 163 163 189 228 248 214 259 92 262 204 264 264 250 238 226 234 267 264 265 254 255 232 209 209 184 170 176 176 170 172 177 187 193 196 194 194 191 185 184 186 186 181 188 181 181 179 175 171 168 173 169 158 167 160 166 170 178 179 175 167 163 158 157 157 152 153 155
147 236 183 177 328 318 343 355 329 8 53 192 179 207 202 198 175 91 110 94 182 199 207 161 237 264 221 158 314 358 292 256 248 239 214 254 260 222 246 254 234 199 176 175 173 177 174 174 186 194 192 195 197 197 194 191 188 187 193 187 188 190 180 177 172 170 170 167 164 162 163 161 160 168 177 186 179 176 161 163 158 164 163 155 160 160
171 160 164 190 216 231 236 222 216 190 200 210 263 199 190 181 193 134 226 214 224 233 189 208 245 251 83 286 191 234 298 277 260 254 241 231 263 271 252 245 215 182 192 182 174 174 189 194 195 197 197 198 198 193 192 192 191 193 193 195 190 185 178 177 166 171 167 170 165 162 161 157 160 176 181 180 172 174 169 161 166 164 162 165 157 157
179 197 185 189 205 227 237 250 76 122 92 186 216 189 200 208 201 199 212 214 222 226 182 219 227 255 260 241 233 242 244 230 245 280 261 257 245 236 242 239 206 196 190 188 186 192 185 195 203 204 199 199 193 192 192 190 192 195 195 194 192 186 174 169 168 167 172 173 175 163 165 164 169 170 174 172 163 152 157 165 163 169 169 173 167 164
86 208 215 205 211 227 235 238 185 154 181 207 200 201 204 196 196 192 203 227 213 91 246 237 231 246 260 254 228 245 255 267 276 263 267 265 259 227 226 225 205 200 204 192 188 192 201 203 200 201 200 194 194 190 194 196 196 195 194 193 185 177 173 171 171 167 171 173 175 167 165 166 164 170 167 157 150 157 159 160 168 177 176 177 177 177
171 217 221 221 230 229 231 237 181 187 196 200 200 200 198 201 194 202 219 226 208 203 232 246 225 227 250 254 234 208 206 208 222 229 237 211 242 178 168 208 201 205 200 197 205 203 202 204 204 199 190 191 185 194 197 197 201 200 197 190 181 178 182 168 168 175 176 176 180 175 159 156 162 158 150 154 155 160 166 168 173 176 177 183 180 182
160 230 212 210 226 234 241 240 215 197 222 223 212 208 202 194 202 208 219 223 218 226 239 250 251 240 240 252 233 213 207 211 221 202 119 196 216 196 195 211 213 206 199 203 205 208 211 211 200 193 186 184 192 195 197 200 201 198 192 189 179 178 173 162 178 174 178 184 183 170 167 163 160 162 159 160 167 170 167 170 169 172 172 181 183 174
163 229 221 217 232 238 244 246 236 216 226 232 229 224 214 210 211 211 218 226 226 237 238 240 247 259 257 132 187 192 206 206 228 250 236 229 219 203 204 210 216 211 210 211 211 214 215 207 196 188 193 197 193 195 197 202 199 190 191 187 180 180 176 173 176 180 183 187 174 168 165 164 165 153 167 170 170 171 170 167 168 173 174 176 181 181
162 266 44 101 229 243 247 244 236 214 205 236 247 233 228 223 222 219 222 221 211 222 231 244 259 254 256 134 191 178 192 209 226 238 244 245 233 223 217 227 226 222 216 215 217 215 207 201 195 198 202 202 201 195 194 194 190 185 195 185 182 179 167 176 179 183 185 176 166 169 168 170 166 172 179 175 178 174 175 170 172 177 177 177 181 182
176 188 226 203 232 234 243 237 242 205 160 252 241 239 233 226 218 219 227 227 222 217 221 220 235 242 242 194 174 202 179 206 221 231 242 243 241 238 237 236 233 228 223 220 216 208 205 202 203 204 207 204 202 201 202 188 177 192 190 180 179 157 170 181 183 181 177 173 172 175 173 170 173 177 176 180 174 171 169 174 177 179 178 185 181 164
180 209 224 198 237 234 248 247 147 154 218 222 226 230 229 228 213 213 224 224 225 207 220 222 234 244 218 165 180 204 198 202 213 229 227 230 232 237 239 233 227 223 225 225 216 207 207 206 209 211 208 204 203 202 191 188 190 181 166 165 158 169 178 179 181 179 178 172 178 177 174 172 173 177 179 175 174 170 173 176 185 183 180 166 161 182
200 202 222 196 232 228 242 93 187 220 226 232 328 299 235 235 227 218 230 232 231 225 239 256 258 256 235 206 207 209 206 220 223 231 236 229 227 224 218 217 219 219 223 221 216 211 208 204 206 207 205 207 198 182 172 181 177 161 158 162 169 176 172 179 174 177 176 177 177 174 175 174 176 178 175 171 166 169 177 181 178 176 177 177 183 187
205 205 203 225 207 278 173 202 238 228 235 329 276 247 351 191 218 221 247 242 236 222 216 230 240 244 240 232 241 231 215 236 274 261 244 240 216 215 212 220 220 217 223 217 212 214 205 202 200 199 206 189 158 174 177 177 166 163 170 163 167 169 172 171 176 178 173 177 178 180 179 174 175 172 165 165 168 174 181 181 185 185 181 181 190 197
203 210 206 245 179 225 201 221 239 318 313 273 276 245 170 173 164 183 222 239 232 225 219 226 238 243 241 240 232 220 270 342 283 260 203 214 231 226 221 229 220 220 222 227 214 220 210 206 200 197 170 165 173 167 174 165 163 163 157 162 167 166 168 169 176 181 181 182 180 180 175 173 170 169 169 172 175 184 185 184 188 185 167 178 189 189
206 216 177 220 212 201 227 241 240 233 241 247 243 273 158 189 187 194 211 256 254 226 220 226 237 243 240 241 239 211 109 280 263 257 201 214 224 232 239 260 261 239 232 235 238 238 200 191 182 170 169 166 169 169 157 156 159 156 159 163 160 162 170 176 185 182 180 184 179 176 174 174 172 173 175 175 184 185 188 187 180 179 173 182 185 194
214 218 207 209 216 188 218 233 233 239 243 240 268 217 232 192 168 116 180 247 249 235 203 221 232 242 233 229 229 164 187 231 247 257 153 203 224 212 220 233 230 232 230 214 203 206 196 185 171 164 153 155 161 165 157 155 155 156 162 162 165 170 175 186 182 179 184 183 175 173 170 173 175 176 175 181 187 182 181 182 184 177 170 188 186 197
207 212 210 230 227 221 224 229 236 222 254 233 250 260 249 120 113 112 199 244 247 116 199 176 197 220 229 226 213 178 194 226 241 254 166 200 200 201 206 224 228 227 233 223 224 194 168 146 135 154 163 169 169 154 153 151 155 160 162 165 164 174 187 189 186 179 164 157 160 165 170 173 176 177 177 181 177 176 185 170 151 162 175 187 186 183
203 225 216 225 223 230 231 249 274 274 274 220 215 148 110 144 129 154 222 252 166 193 193 181 203 214 222 222 170 194 215 217 233 66 124 30 153 216 225 284 226 200 193 181 175 141 149 163 164 167 168 160 146 149 150 152 152 162 162 162 170 192 194 173 152 155 159 156 160 167 172 175 177 176 179 178 180 176 168 164 169 164 172 181 184 181
243 221 256 224 231 232 230 236 241 274 235 156 2 145 156 101 214 223 232 234 181 220 254 211 213 226 222 153 185 212 227 230 257 182 1 236 209 288 113 125 93 70 53 115 143 145 144 150 141 136 134 142 148 150 153 154 160 158 162 167 191 193 148 149 154 151 156 162 166 168 168 170 172 174 173 169 155 158 167 169 166 173 177 175 174 185
182 187 194 212 225 253 234 250 229 240 272 97 119 33 277 199 246 173 161 350 177 266 229 235 224 259 137 201 203 212 233 235 236 245 227 219 210 215 194 179 183 169 159 141 144 164 149 146 147 147 143 145 149 153 157 155 157 165 168 186 186 153 153 148 150 155 157 160 160 165 167 169 170 167 163 164 166 165 170 164 166 168 165 165 172 184
180 203 184 225 183 212 209 219 217 224 160 190 151 194 198 216 186 196 145 115 212 190 232 270 263 213 212 193 203 219 225 225 264 222 201 238 241 230 190 190 148 139 142 159 155 158 151 139 139 136 141 150 154 158 160 162 163 167 176 181 145 144 139 147 150 150 152 155 158 157 162 165 166 164 161 163 162 166 160 166 168 165 173 171 174 177
188 202 170 216 179 195 207 227 248 238 197 223 224 298 250 217 42 153 133 165 196 264 186 193 251 209 201 200 210 206 213 219 222 194 190 212 203 199 193 192 183 172 169 162 166 161 157 154 148 140 136 147 153 163 169 173 165 165 166 157 144 147 146 141 138 137 145 151 154 157 154 155 163 167 165 163 162 162 163 162 163 168 177 170 178 182
357 203 350 105 267 282 278 195 179 349 288 268 256 165 350 324 349 79 130 330 257 224 188 207 277 256 215 201 178 221 216 214 201 201 213 204 195 190 161 151 149 152 148 143 146 158 142 127 129 137 141 147 165 164 173 172 173 160 161 141 146 145 142 141 143 151 153 151 152 157 152 155 160 161 161 161 169 171 170 167 172 174 172 177 186 189
274 103 48 192 284 230 253 260 252 271 327 321 297 293 269 232 271 176 277 242 274 294 276 278 298 300 217 202 214 219 225 204 201 205 193 189 190 184 178 175 172 170 166 167 168 145 141 144 145 149 152 153 169 165 161 151 124 111 127 139 138 135 135 138 142 142 146 153 152 149 157 158 164 160 157 164 163 166 165 166 171 169 172 181 185 190
320 148 59 247 276 232 277 330 284 245 231 256 253 274 273 264 297 252 230 260 269 270 240 255 216 247 183 217 227 230 229 192 192 189 192 200 191 182 182 177 168 161 178 164 155 157 149 157 152 155 158 157 163 163 150 137 122 119 128 130 135 133 134 140 150 154 158 157 156 158 162 163 157 159 164 172 171 168 172 174 174 178 184 185 184 182
191 84 252 181 173 279 292 290 291 299 272 257 260 263 258 258 257 267 229 240 244 233 235 19 153 207 190 236 234 201 199 212 207 189 178 180 185 190 188 178 179 173 157 159 171 168 165 159 154 157 154 148 150 144 138 129 119 126 136 139 140 144 143 147 147 144 145 147 148 156 162 159 165 170 167 170 180 189 181 175 181 190 202 210 189 188
95 243 215 75 286 273 259 264 62 341 302 329 299 258 254 239 222 226 256 235 214 210 206 151 20 27 169 200 189 196 206 209 196 177 193 193 188 179 169 168 171 160 153 145 147 149 132 145 145 149 147 141 144 146 145 139 127 135 140 141 146 148 146 144 141 140 150 152 154 155 157 160 165 165 165 168 173 171 209 243 196 199 190 200 200 208
201 208 175 202 232 264 260 244 197 171 256 258 277 292 269 264 203 219 222 216 217 217 199 166 147 198 200 352 174 177 218 205 211 168 182 197 206 188 177 170 163 163 160 155 142 145 149 148 150 142 145 147 151 150 148 142 140 139 147 147 153 151 147 144 141 144 147 156 165 170 167 160 159 163 160 162 162 172 175 196 229 218 218 210 196 207